Miscellaneous Local Product
Issued by NWS North Platte, NE

Current Version | Previous Version | Text Only | Print | Product List | Glossary On
Versions: 1 2 3 4 5 6 7 8 9 10 11 12 13 14 15 16 17 18 19 20 21 22 23 24 25 26 27 28 29 30 31 32 33 34 35 36 37 38 39 40 41 42 43 44 45 46 47 48 49 50
000
AXUS43 KLBF 061710
MISLBF


WESTERN AND NORTH CENTRAL NEBRASKA HOURLY WEATHER ROUNDUP
NATIONAL WEATHER SERVICE NORTH PLATTE NE
1100 AM CST FRI MAR 06 2015

***STATIONS NOT REPORTING VARIABLES SUCH AS SKY/WEATHER OR
PRESSURE ARE PROVIDED BY THE NEBRASKA DEPARTMENT OF
ROADS...RAWS...AND APRS NETWORKS...AND ARE NOT UNDER
NATIONAL WEATHER SERVICE QUALITY CONTROL***

...OBSERVATIONS IN AND NEAR THE EASTERN PANHANDLE OF NEBRASKA...

CITY           SKY/WX    TMP DP  RH WIND       PRES   REMARKS
PINE RIDGE     MOSUNNY   44  24  45 SW13      30.19S
CHADRON        CLOUDY    44  23  43 W16       30.21F
ALLIANCE       SUNNY     51  17  26 NW18      30.21S
SIDNEY         SUNNY     50  18  28 NW14G23   30.26S
WHITECLAY        N/A     43  20  40 W10         N/A
CRESCENT LAKE    N/A     51  18  27 W13         N/A
LISCO            N/A     49  11  22 W21         N/A
BIG SPRINGS      N/A     47  28  47 SW12        N/A
LEWELLEN         N/A     49  17  27 NW15        N/A
$$

...OBSERVATIONS IN NORTH CENTRAL NEBRASKA...

CITY           SKY/WX    TMP DP  RH WIND       PRES   REMARKS
VALENTINE      SUNNY     51  20  29 NW12      30.17S
THEDFORD       SUNNY     54  22  29 W12G18    30.19S
AINSWORTH      SUNNY     50  16  26 NW14      30.17S
O`NEILL        SUNNY     52  21  29 NW10      30.16S
ORD            SUNNY     51  16  24 W7        30.19S
BROKEN BOW     SUNNY     52  22  30 W13       30.20S
BROWNLEE         N/A     55  18  22 W14         N/A
SPRINGVIEW       N/A     48  24  39 SW6         N/A
BREWSTER         N/A     51  19  27 NW10        N/A
ROSE             N/A     52  21  30 S8          N/A
NEWPORT          N/A     49  20  31 NW13        N/A
SARGENT          N/A     50  23  34 NW6G15      N/A
COMSTOCK         N/A     55  17  22 W9          N/A
CHAMBERS         N/A     54  23  29 N3G12       N/A
EWING            N/A     53  24  32 W9          N/A
$$

...OBSERVATIONS IN SOUTHWEST NEBRASKA AND FAR NORTHEAST COLORADO...

CITY           SKY/WX    TMP DP  RH WIND       PRES   REMARKS
WRAY           FAIR      54  18  24 W17G23    30.29F
HOLYOKE        FAIR      54  19  26 NW14      30.27S
IMPERIAL         N/A     52  19  27 NW14      30.26S
OGALLALA       SUNNY     50  24  36 W13       30.24F
NORTH PLATTE   SUNNY     49  22  34 W12       30.23F
MCCOOK         SUNNY     50  22  33 W9        30.27F
LEXINGTON      SUNNY     49  22  34 W7        30.24F
PAXTON           N/A     47  28  47 W9          N/A
BRADY            N/A     50  25  37 S5          N/A
GOTHENBURG       N/A     51  21  30 W7          N/A
CALLAWAY         N/A     50  26  39 W10         N/A
$$

...NORTH PLATTE AREA...

CITY           SKY/WX    TMP DP  RH WIND       PRES   REMARKS
AIRPORT        SUNNY     49  22  34 W12       30.23F
DOWNTOWN         N/A     49  24  37 W3          N/A
$$

...SOME WEATHER OBSERVATIONS FROM AROUND THE REGION...

CITY           SKY/WX    TMP DP  RH WIND       PRES   REMARKS
DENVER         MOSUNNY   41  18  39 S6        30.30R
LARAMIE        SUNNY     34  14  43 W16       30.29S WCI  24
CHEYENNE       SUNNY     41  13  31 W12       30.28R
SCOTTSBLUFF    SUNNY     49  22  34 W12       30.26S
RAPID CITY     MOSUNNY   50  20  30 VRB3      30.13F
PIERRE         MOSUNNY   39  20  46 W7        30.14S WCI  34
WINNER         FAIR      47  21  35 W10       30.16S
SIOUX FALLS    MOSUNNY   40  21  46 W13       30.11S WCI  32
OMAHA          SUNNY     42  17  36 SW7       30.22F
GRAND ISLAND   SUNNY     50  20  30 W15       30.23S
KANSAS CITY    SUNNY     46  23  40 SW15      30.29F
WICHITA        MOSUNNY   45  28  51 SW10      30.37F
HAYS           SUNNY     54  21  28 W9        30.31F
LIBERAL        SUNNY     46  30  53 CALM      30.37F
GOODLAND       SUNNY     53  18  25 W17       30.31S
$$



USA.gov is the U.S. government's official web portal to all federal, state and local government web resources and services.